Location: Larch Mountain
(45.5297°N, 122.0872°W)
Time: 15:40:16
(UTC-08:00)

ISS - All Passes

Search period start: 17 January 2018 00:00
Search period end: 27 January 2018 00:00
Orbit: 402 x 407 km, 51.6° (Epoch: 18 January)

Date Brightness Start Highest point End Pass type
(mag) Time Alt. Az. Time Alt. Az. Time Alt. Az.
17 Jan - 00:40:32 10° WNW 00:43:31 32° NNW 00:46:32 10° NE night (unlit)
17 Jan - 02:17:40 10° NW 02:20:35 29° N 02:23:30 10° ENE night (unlit)
17 Jan - 03:54:07 10° WNW 03:57:25 77° NNE 04:00:42 10° ESE night (unlit)
17 Jan - 05:31:18 10° W 05:33:33 17° SW 05:35:48 10° S visible
17 Jan - 22:11:32 10° SW 22:14:38 41° SE 22:17:45 10° ENE night (unlit)
17 Jan - 23:48:00 10° W 23:51:08 41° NNW 23:54:16 10° NE night (unlit)
18 Jan - 01:25:17 10° WNW 01:28:09 27° N 01:31:00 10° ENE night (unlit)
18 Jan - 03:01:54 10° NW 03:05:06 50° NNE 03:08:19 10° E night (unlit)
18 Jan - 04:38:33 10° WNW 04:41:28 30° SW 04:44:23 10° SSE visible
18 Jan - 21:19:49 10° SSW 21:22:30 24° SE 21:25:12 10° E night (unlit)
18 Jan - 22:55:33 10° WSW 22:58:47 58° NNW 23:02:01 10° ENE night (unlit)
19 Jan - 00:32:49 10° WNW 00:35:41 27° N 00:38:34 10° ENE night (unlit)
19 Jan - 02:09:38 10° NW 02:12:44 37° NNE 02:15:49 10° E night (unlit)
19 Jan - 03:46:06 10° WNW 03:49:19 52° SW 03:52:31 10° SE night (unlit)
19 Jan - 20:28:42 10° SSE 20:30:26 14° SE 20:32:11 10° E night (unlit)
19 Jan - 22:03:12 10° WSW 22:06:28 88° SSE 22:09:46 10° ENE night (unlit)
19 Jan - 23:40:17 10° WNW 23:43:14 30° N 23:46:12 10° NE night (unlit)
20 Jan - 01:17:21 10° NW 01:20:18 30° N 01:23:15 10° ENE night (unlit)
20 Jan - 02:53:47 10° WNW 02:57:04 90° SW 03:00:21 10° ESE night (unlit)
20 Jan - 04:31:17 10° W 04:33:07 14° SW 04:34:57 10° SSW night (unlit)
20 Jan - 21:11:03 10° SW 21:14:14 51° SE 21:17:25 10° ENE night (unlit)
20 Jan - 22:47:43 10° W 22:50:48 37° NNW 22:53:53 10° NE night (unlit)
21 Jan - 00:24:58 10° WNW 00:27:50 27° N 00:30:42 10° ENE night (unlit)
21 Jan - 02:01:30 10° WNW 02:04:45 57° NNE 02:07:59 10° ESE night (unlit)
21 Jan - 03:38:18 10° W 03:41:02 24° SW 03:43:45 10° SSE night (unlit)
21 Jan - 20:19:10 10° SSW 20:22:02 29° SE 20:24:55 10° ENE night (unlit)
21 Jan - 21:55:12 10° W 21:58:23 51° NNW 22:01:36 10° NE night (unlit)
21 Jan - 23:32:29 10° WNW 23:35:20 27° N 23:38:12 10° ENE night (unlit)
22 Jan - 01:09:13 10° NW 01:12:21 40° NNE 01:15:29 10° E night (unlit)
22 Jan - 02:45:44 10° WNW 02:48:52 43° SW 02:51:59 10° SE night (unlit)
22 Jan - 19:27:43 10° S 19:29:54 17° SE 19:32:05 10° E visible
22 Jan - 21:02:46 10° WSW 21:06:01 78° NNW 21:09:18 10° ENE night (unlit)
22 Jan - 22:39:56 10° WNW 22:42:50 29° N 22:45:46 10° NE night (unlit)
23 Jan - 00:16:54 10° NW 00:19:54 32° NNE 00:22:54 10° ENE night (unlit)
23 Jan - 01:53:19 10° WNW 01:56:36 76° SSW 01:59:52 10° SE night (unlit)
23 Jan - 03:31:23 10° WSW 03:32:34 12° SW 03:33:45 10° SSW night (unlit)
23 Jan - 20:10:29 10° SW 20:13:43 62° SSE 20:16:57 10° ENE visible
23 Jan - 21:47:19 10° W 21:50:21 34° NNW 21:53:23 10° NE night (unlit)
23 Jan - 23:24:30 10° NW 23:27:24 28° N 23:30:17 10° ENE night (unlit)
24 Jan - 01:01:00 10° WNW 01:04:16 67° NNE 01:07:31 10° ESE night (unlit)
24 Jan - 02:37:59 10° W 02:40:28 20° SW 02:42:58 10° S night (unlit)
24 Jan - 19:18:27 10° SSW 19:21:27 35° SE 19:24:29 10° ENE visible
24 Jan - 20:54:44 10° W 20:57:53 45° NNW 21:01:04 10° NE night (unlit)
24 Jan - 22:32:02 10° WNW 22:34:52 26° N 22:37:43 10° ENE night (unlit)
25 Jan - 00:08:41 10° NW 00:11:51 45° NNE 00:15:01 10° E night (unlit)
25 Jan - 01:45:16 10° WNW 01:48:17 35° SW 01:51:18 10° SSE night (unlit)
25 Jan - 18:26:47 10° S 18:29:16 20° SE 18:31:45 10° E visible
25 Jan - 20:02:13 10° WSW 20:05:28 67° NNW 20:08:43 10° ENE visible
25 Jan - 21:39:27 10° WNW 21:42:20 28° N 21:45:13 10° NE night (unlit)
25 Jan - 23:16:21 10° NW 23:19:23 34° NNE 23:22:24 10° E night (unlit)
26 Jan - 00:52:46 10° WNW 00:56:01 62° SSW 00:59:15 10° SE night (unlit)
26 Jan - 17:35:59 10° SSE 17:37:08 11° SE 17:38:17 10° ESE visible
26 Jan - 19:09:51 10° SW 19:13:06 75° SSE 19:16:21 10° ENE visible
26 Jan - 20:46:48 10° WNW 20:49:47 32° NNW 20:52:47 10° NE visible
26 Jan - 22:23:56 10° NW 22:26:51 29° N 22:29:46 10° ENE night (unlit)
